Zurück zum Katalog

VSP RF B1

AktivMilitärSSO
NORAD 59137·PAYLOAD·🇧🇪 Belgium

Gestartet Mar 4, 2024 von Vandenberg Space Force Base

Loading…

Nächste Überflüge (nächste 24 Stunden)

TLE

AktuellSource: Space-Track

Epoche: Sep 14, 2026, 14:33 UTC

1 59137U 24043AR  26257.60672506  .00002731  00000-0  12029-3 0  9992
2 59137  97.5747  35.4570 0001254  71.0329 289.1043 15.22705244140648

Verfolge VSP RF B1 in Echtzeit mit AllMySat

Download on the App Store